KSLV-II R/B (52896 NORAD) Tracking and Keplerian Element Data

This shows tracking and keplerian element data for the satellite.

Feedback or suggestion? Click here.




ElementValue
Catalog52896
NameKSLV-II R/B
Epoch Orbit289
Epoch Day192.10918018
Epoch Year2022
RAAN342.9666
Inclination98.0731
Eccentricity0.0008549
Argument of Perigee13.8556
Mean Anonmoly346.2879
Mean Motion14.62520595
Decay Rate4.9E-07
L11 52896U 22065C 22192.10918018 .00000049 00000+0 18853-4 0 9990
L22 52896 98.0731 342.9666 0008549 13.8556 346.2879 14.62520595 2897

Live tracking and technical data element details for KSLV-II R/B (NORAD 52896). KSLV-II R/B can be tracked NOW for your location showing map with azimuth and elevation plus other details from your city location.

Track the satellite on the map from your city or location and see movement details for azimuth, elevation, latitude, longitude, range, height, and movement on the map or in text.







IsCatalogInMostPopularTable: catalog: 52896, numindb: 8
Update: records affected: 1



GetName: 52896 KSLV-II R/B

Hit Count: updated at: Thu, 06 Oct 2022 04:28:19 GMT